Regional Weather Roundup
Issued by NWS Newport/Morehead, NC

Current Version | Previous Version | Text Only | Print | Product List | Glossary On
Versions: 1 2 3 4 5 6 7 8 9 10 11 12 13 14 15 16 17 18 19 20 21 22 23 24 25 26 27 28 29 30 31 32 33 34 35 36 37 38 39 40 41 42 43 44 45 46 47 48 49 50
000 ASUS42 KMHX 231610 RWRMHX WEATHER ROUNDUP FOR EASTERN NORTH CAROLINA NATIONAL WEATHER SERVICE NEWPORT/MOREHEAD CITY NC 1200 PM EDT THU OCT 23 2014 NOTE: "FAIR" INDICATES FEW OR NO CLOUDS BELOW 12,000 FEET WITH NO SIGNIFICANT WEATHER AND/OR OBSTRUCTIONS TO VISIBILITY NCZ015>017-031-032-045>047-102-103-231700- NORTH COAST CITY SKY/WX TMP DP RH WIND PRES REMARKS EDENTON SUNNY 62 45 53 NW16G25 29.93S ELIZABETH CITY SUNNY 63 45 51 NW18G24 29.90 KITTY HAWK MOSUNNY 59 46 60 W8G18 29.89S MANTEO MOSUNNY 59 46 62 NW15G23 29.90F $$ NCZ045>047-081-094-103-104-231700- CENTRAL COAST CITY SKY/WX TMP DP RH WIND PRES REMARKS FRISCO MOSUNNY 59 46 62 NW15G25 29.92 SWANQUARTER N/A 63 N/A N/A NW14G26 29.88 $$ NCZ095-097-098-100-101-231700- SOUTHERN COAST CITY SKY/WX TMP DP RH WIND PRES REMARKS BEAUFORT SUNNY 64 46 52 NW14 29.96 CEDAR ISLAND N/A 61 N/A N/A W13G18 29.97 JACKSONVILLE SUNNY 63 43 48 NW9 29.98 PINEY ISLAND SUNNY 64 44 48 NW13 29.94 WILMINGTON SUNNY 63 44 50 NW8 30.00 $$ NCZ011>013-027>030-043-044-078>080-089-090>093-098-231700- COASTAL PLAIN CITY SKY/WX TMP DP RH WIND PRES REMARKS AHOSKIE SUNNY 60 43 52 N9G17 29.95F CLINTON SUNNY 61 45 55 NW8 30.03S ELIZABETHTOWN SUNNY 61 43 50 NW7 30.03S GOLDSBORO SUNNY 63 48 58 CALM 29.98 GREENVILLE SUNNY 63 43 48 NW9 29.98F HAVELOCK SUNNY 63 44 50 NW7 29.98 KENANSVILLE SUNNY 61 42 50 W7 30.02S KINSTON SUNNY 63 43 48 NW12G17 29.99F NEW BERN SUNNY 65 44 46 NW12 29.98 RICHLANDS SUNNY 63 41 45 W6 30.00S ROCKY MOUNT SUNNY 64 42 44 NW10G21 29.97 WASHINGTON SUNNY 61 44 52 NW9G16 29.95F WHITEVILLE SUNNY 62 43 49 NW3 30.03F $$ AMZ130-135-150-152-154-156-158-170-250-252-270-ANZ085-086-088-633-658-670-231700- MARINE OBSERVATIONS STATION/POSITION TIME TEMP WIND PRES WAVE SWELL AIR SEA DIR/SP/G HT/PER HT/PER (UTC) (F) (DEG/KT/KT) (MB) (FT/S) (FT/S) CHESAPEAKE LIGHT NOT AVBL 64 E VA BEACH 1600 60 69 320/ 23/ 29 1009.1 10/ 6 5/10 DUCK 1600 58 67 320/ 15/ 20 1011.2 2 E DUCK 1500 N/A 5/ 9 2/11 10 NE DUCK 1600 69 N/A 7/ 6 2/11 OREGON INLET 1600 58 62 290/ 14/ 21 1012.0 13E OREGON INLT 1600 71 N/A 8/ 9 2/11 HATTERAS CG 1600 58 62 310/ 21/ 24 1013.6 DIAMOND BUOY 1600 60 300/ 21/ 29 1012.7 7/ 6 2/11 17 S OCRACOKE NOT AVBL CAPE LOOKOUT NOT AVBL BEAUFORT LAB 1600 61 67 320/ 6/ 11 1014.0 30 SE NEW RIVER 1600 61 75 340/ 12/ 16 1014.9 3/ 5 5 SE WRIGHTSVLE 1600 57 72 330/ 10/ 12 N/A 225 S CAPE HAT 1542 71 78 300/ 16/ 21 1014.8 7/ 9 5/ 9 41 SE CHARLESTON 1600 62 78 330/ 6/ 12 1017.8 3/ 5 3/ 5 $$

USA.gov is the U.S. government's official web portal to all federal, state and local government web resources and services.